• en France
  • Liste des pays
  • À 7 jours
  • Température de l'eau
  • Carte satellitaire
  • Carte météo
  • Widgets météo
  • user-avatar
    Se connecter

    Météo par heure à Brusyanaya

    Ce jour, 21 Mai, Lundi

    Heure Température Précipitation Vent Pression Humidité
    00:00 +12°C° 0,1 mm 4 m/s 751 mmHg 86%
    01:00 +12°C° 0,1 mm 4 m/s 751 mmHg 86%
    02:00 +11°C° 0,1 mm 4 m/s 751 mmHg 87%
    03:00 +10°C° 0,1 mm 4 m/s 751 mmHg 88%
    04:00 +10°C° 0,3 mm 4 m/s 752 mmHg 86%
    05:00 +9°C° 0,3 mm 5 m/s 752 mmHg 85%
    06:00 +9°C° 0,3 mm 5 m/s 752 mmHg 84%
    07:00 +9°C° 0,5 mm 5 m/s 753 mmHg 82%
    08:00 +9°C° 0,5 mm 5 m/s 753 mmHg 80%
    09:00 +9°C° 0,5 mm 5 m/s 753 mmHg 78%
    10:00 +9°C° 0,6 mm 5 m/s 754 mmHg 79%
    11:00 +9°C° 0,6 mm 5 m/s 754 mmHg 80%
    12:00 +9°C° 0,6 mm 5 m/s 754 mmHg 81%
    13:00 +10°C° 0 mm 5 m/s 754 mmHg 79%
    14:00 +12°C° 0 mm 5 m/s 754 mmHg 76%
    15:00 +13°C° 0 mm 6 m/s 754 mmHg 73%
    16:00 +13°C° 0 mm 5 m/s 754 mmHg 71%
    17:00 +14°C° 0 mm 5 m/s 754 mmHg 69%
    18:00 +14°C° 0 mm 5 m/s 754 mmHg 68%
    19:00 +14°C° 0 mm 5 m/s 755 mmHg 68%
    20:00 +13°C° 0 mm 4 m/s 755 mmHg 69%
    21:00 +13°C° 0 mm 4 m/s 755 mmHg 70%
    22:00 +12°C° 0 mm 4 m/s 755 mmHg 70%
    23:00 +12°C° 0 mm 4 m/s 756 mmHg 70%

    Demain, 22 Mai, Mardi

    Heure Température Précipitation Vent Pression Humidité
    00:00 +12°C° 0 mm 4 m/s 756 mmHg 70%
    01:00 +11°C° 0 mm 4 m/s 756 mmHg 71%
    02:00 +11°C° 0 mm 4 m/s 756 mmHg 72%
    03:00 +10°C° 0 mm 4 m/s 756 mmHg 73%
    04:00 +9°C° 0 mm 5 m/s 756 mmHg 74%
    05:00 +9°C° 0 mm 5 m/s 756 mmHg 75%
    06:00 +9°C° 0 mm 5 m/s 757 mmHg 76%
    07:00 +12°C° 0,1 mm 5 m/s 757 mmHg 74%
    08:00 +13°C° 0,1 mm 5 m/s 757 mmHg 71%
    09:00 +15°C° 0,1 mm 5 m/s 757 mmHg 68%
    10:00 +16°C° 0,1 mm 5 m/s 757 mmHg 66%
    11:00 +17°C° 0,1 mm 5 m/s 757 mmHg 64%
    12:00 +20°C° 0,1 mm 5 m/s 757 mmHg 62%
    13:00 +20°C° 0 mm 5 m/s 757 mmHg 62%
    14:00 +21°C° 0 mm 5 m/s 756 mmHg 62%
    15:00 +22°C° 0 mm 5 m/s 756 mmHg 62%
    16:00 +22°C° 0 mm 4 m/s 756 mmHg 66%
    17:00 +22°C° 0 mm 4 m/s 756 mmHg 69%
    18:00 +21°C° 0 mm 3 m/s 756 mmHg 72%
    19:00 +20°C° 0 mm 3 m/s 756 mmHg 77%
    20:00 +18°C° 0 mm 3 m/s 756 mmHg 82%
    21:00 +17°C° 0 mm 2 m/s 756 mmHg 88%
    22:00 +16°C° 0 mm 3 m/s 756 mmHg 88%
    23:00 +16°C° 0 mm 3 m/s 755 mmHg 88%

    Après-demain, 23 Mai, Mercredi

    Heure Température Précipitation Vent Pression Humidité
    00:00 +14°C° 0 mm 3 m/s 755 mmHg 88%
    01:00 +14°C° 0,1 mm 3 m/s 755 mmHg 87%
    02:00 +14°C° 0,1 mm 3 m/s 755 mmHg 85%
    03:00 +14°C° 0,1 mm 3 m/s 755 mmHg 83%
    04:00 +14°C° 0,1 mm 3 m/s 755 mmHg 83%
    05:00 +14°C° 0,1 mm 3 m/s 755 mmHg 82%
    06:00 +14°C° 0,1 mm 3 m/s 755 mmHg 82%
    07:00 +17°C° 0,1 mm 3 m/s 755 mmHg 77%
    08:00 +18°C° 0,1 mm 3 m/s 755 mmHg 73%
    09:00 +20°C° 0,1 mm 3 m/s 755 mmHg 69%
    10:00 +21°C° 0 mm 3 m/s 754 mmHg 66%
    11:00 +22°C° 0 mm 3 m/s 754 mmHg 63%
    12:00 +25°C° 0 mm 4 m/s 754 mmHg 60%
    13:00 +25°C° 0 mm 4 m/s 754 mmHg 61%
    14:00 +26°C° 0 mm 4 m/s 753 mmHg 61%
    15:00 +26°C° 0 mm 4 m/s 753 mmHg 61%
    16:00 +25°C° 0 mm 4 m/s 753 mmHg 67%
    17:00 +25°C° 0 mm 3 m/s 753 mmHg 72%
    18:00 +24°C° 0 mm 3 m/s 752 mmHg 77%
    19:00 +22°C° 0,3 mm 3 m/s 752 mmHg 80%
    20:00 +21°C° 0,3 mm 3 m/s 752 mmHg 82%
    21:00 +19°C° 0,3 mm 3 m/s 752 mmHg 84%
    22:00 +19°C° 0,3 mm 3 m/s 752 mmHg 81%
    23:00 +18°C° 0,3 mm 2 m/s 752 mmHg 79%

    24 Mai, Jeudi

    Heure Température Précipitation Vent Pression Humidité
    00:00 +18°C° 0,3 mm 2 m/s 752 mmHg 77%
    01:00 +17°C° 0 mm 2 m/s 751 mmHg 79%
    02:00 +17°C° 0 mm 2 m/s 751 mmHg 81%
    03:00 +16°C° 0 mm 2 m/s 751 mmHg 83%
    04:00 +17°C° 0,1 mm 2 m/s 751 mmHg 85%
    05:00 +17°C° 0,1 mm 2 m/s 751 mmHg 86%
    06:00 +17°C° 0,1 mm 2 m/s 751 mmHg 88%
    07:00 +18°C° 0 mm 2 m/s 751 mmHg 85%
    08:00 +19°C° 0 mm 2 m/s 751 mmHg 82%
    09:00 +20°C° 0 mm 2 m/s 751 mmHg 80%
    10:00 +21°C° 0,1 mm 2 m/s 751 mmHg 75%
    11:00 +23°C° 0,1 mm 2 m/s 751 mmHg 71%
    12:00 +24°C° 0,1 mm 2 m/s 751 mmHg 66%
    13:00 +24°C° 0,2 mm 2 m/s 750 mmHg 65%
    14:00 +24°C° 0,2 mm 2 m/s 750 mmHg 64%
    15:00 +25°C° 0,2 mm 3 m/s 750 mmHg 63%
    16:00 +24°C° 0,8 mm 2 m/s 749 mmHg 68%
    17:00 +23°C° 0,8 mm 2 m/s 749 mmHg 72%
    18:00 +23°C° 0,8 mm 1 m/s 749 mmHg 77%
    19:00 +22°C° 0,3 mm 1 m/s 749 mmHg 80%
    20:00 +20°C° 0,3 mm 1 m/s 749 mmHg 84%
    21:00 +19°C° 0,3 mm 1 m/s 749 mmHg 87%
    22:00 +17°C° 0,2 mm 2 m/s 749 mmHg 89%
    23:00 +17°C° 0,2 mm 3 m/s 750 mmHg 91%

    25 Mai, Vendredi

    Heure Température Précipitation Vent Pression Humidité
    00:00 +16°C° 0,2 mm 3 m/s 750 mmHg 93%
    01:00 +15°C° 0,1 mm 4 m/s 750 mmHg 94%
    02:00 +14°C° 0,1 mm 5 m/s 750 mmHg 94%
    03:00 +14°C° 0,1 mm 5 m/s 750 mmHg 95%
    04:00 +13°C° 0,2 mm 6 m/s 751 mmHg 94%
    05:00 +13°C° 0,2 mm 6 m/s 752 mmHg 93%
    06:00 +12°C° 0,2 mm 7 m/s 752 mmHg 92%
    07:00 +11°C° 0 mm 7 m/s 753 mmHg 90%
    08:00 +11°C° 0 mm 7 m/s 753 mmHg 89%
    09:00 +10°C° 0 mm 7 m/s 753 mmHg 87%
    10:00 +11°C° 0 mm 7 m/s 754 mmHg 83%
    11:00 +12°C° 0 mm 7 m/s 754 mmHg 79%
    12:00 +14°C° 0 mm 7 m/s 755 mmHg 74%
    13:00 +15°C° 0 mm 7 m/s 755 mmHg 71%
    14:00 +16°C° 0 mm 7 m/s 755 mmHg 67%
    15:00 +17°C° 0 mm 7 m/s 755 mmHg 63%
    16:00 +16°C° 0 mm 6 m/s 755 mmHg 63%
    17:00 +16°C° 0 mm 6 m/s 756 mmHg 63%
    18:00 +15°C° 0 mm 5 m/s 756 mmHg 63%
    19:00 +14°C° 0 mm 5 m/s 756 mmHg 65%
    20:00 +12°C° 0 mm 4 m/s 757 mmHg 66%
    21:00 +11°C° 0 mm 4 m/s 757 mmHg 67%
    22:00 +10°C° 0 mm 4 m/s 757 mmHg 68%
    23:00 +8°C° 0 mm 4 m/s 758 mmHg 69%

    26 Mai, Samedi

    Heure Température Précipitation Vent Pression Humidité
    00:00 +7°C° 0 mm 4 m/s 758 mmHg 70%
    01:00 +7°C° 0 mm 4 m/s 759 mmHg 71%
    02:00 +7°C° 0 mm 3 m/s 759 mmHg 72%
    03:00 +7°C° 0 mm 3 m/s 759 mmHg 73%
    04:00 +7°C° 0 mm 3 m/s 760 mmHg 72%
    05:00 +6°C° 0 mm 4 m/s 760 mmHg 71%
    06:00 +7°C° 0 mm 4 m/s 760 mmHg 70%
    07:00 +8°C° 0 mm 4 m/s 761 mmHg 64%
    08:00 +11°C° 0 mm 4 m/s 761 mmHg 58%
    09:00 +13°C° 0 mm 4 m/s 761 mmHg 53%
    10:00 +14°C° 0 mm 4 m/s 761 mmHg 51%
    11:00 +15°C° 0 mm 4 m/s 761 mmHg 48%
    12:00 +17°C° 0 mm 4 m/s 761 mmHg 46%
    13:00 +17°C° 0 mm 4 m/s 761 mmHg 46%
    14:00 +18°C° 0 mm 4 m/s 760 mmHg 46%
    15:00 +18°C° 0 mm 3 m/s 760 mmHg 46%
    16:00 +18°C° 0 mm 3 m/s 760 mmHg 49%
    17:00 +18°C° 0 mm 3 m/s 760 mmHg 53%
    18:00 +17°C° 0 mm 2 m/s 759 mmHg 57%
    19:00 +15°C° 0 mm 2 m/s 759 mmHg 61%
    20:00 +13°C° 0 mm 2 m/s 759 mmHg 66%
    21:00 +12°C° 0 mm 2 m/s 759 mmHg 70%
    22:00 +11°C° 0 mm 1 m/s 759 mmHg 72%
    23:00 +10°C° 0 mm 1 m/s 759 mmHg 74%
    Voir plus